This is the latest recevied weather packets stored in our database for station/object KE1THD. If no packets are shown the sender has not sent any weather packets the latest 10 day(s).
| Time | Temp. | Humidity | Pressure | Rain* | Wind** | Luminosity | Snow |
|---|---|---|---|---|---|---|---|
| 1776955835 | 22.22° C | 68% | 1009.9 hPa | 0 mm | - | 514 W/m² | - |
| 1776955532 | 22.78° C | 68% | 1010 hPa | 0 mm | - | 526 W/m² | - |
| 1776955227 | 22.22° C | 68% | 1010 hPa | 0 mm | - | 507 W/m² | - |
| 1776954924 | 22.22° C | 70% | 1010 hPa | 0 mm | - | 508 W/m² | - |
| 1776954620 | 22.22° C | 70% | 1010.1 hPa | 0 mm | - | 532 W/m² | - |
| 1776954319 | 21.67° C | 71% | 1010.2 hPa | 0 mm | - | 491 W/m² | - |
| 1776954014 | 21.67° C | 72% | 1010.4 hPa | 0 mm | - | 475 W/m² | - |
| 1776953709 | 21.67° C | 71% | 1010.1 hPa | 0 mm | - | 444 W/m² | - |
| 1776953409 | 20.56° C | 74% | 1010.3 hPa | 0 mm | - | 406 W/m² | - |
| 1776953103 | 20.56° C | 74% | 1010 hPa | 0 mm | - | 387 W/m² | - |
| 1776952798 | 20.56° C | 74% | 1010.3 hPa | 0 mm | - | 372 W/m² | - |
| 1776952496 | 20° C | 75% | 1010.4 hPa | 0 mm | - | 345 W/m² | - |
| 1776952191 | 20° C | 75% | 1010.6 hPa | 0 mm | - | 336 W/m² | - |
| 1776951889 | 20° C | 76% | 1010.4 hPa | 0 mm | - | 323 W/m² | - |
| 1776951585 | 19.44° C | 76% | 1010.6 hPa | 0 mm | - | 310 W/m² | - |
| 1776951282 | 19.44° C | 77% | 1010.5 hPa | 0 mm | - | 285 W/m² | - |
| 1776950978 | 18.89° C | 78% | 1010.6 hPa | 0 mm | - | 262 W/m² | - |
| 1776950674 | 18.89° C | 78% | 1010.7 hPa | 0 mm | - | 58 W/m² | - |
| 1776950370 | 18.89° C | 79% | 1010.6 hPa | 0 mm | - | 69 W/m² | - |
| 1776950065 | 18.33° C | 80% | 1010.7 hPa | 0 mm | - | 208 W/m² | - |
| 1776949761 | 18.33° C | 80% | 1010.9 hPa | 0 mm | - | 55 W/m² | - |
| 1776949458 | 17.78° C | 81% | 1011 hPa | 0 mm | - | 49 W/m² | - |
| 1776949153 | 17.78° C | 82% | 1010.7 hPa | 0 mm | - | 49 W/m² | - |
| 1776948850 | 17.78° C | 82% | 1010.8 hPa | 0 mm | - | 56 W/m² | - |
| 1776948545 | 17.22° C | 83% | 1011 hPa | 0 mm | - | 50 W/m² | - |
* Rain latest hour (hover to see other rain measurements)
** Current wind speed in m/s (hover to see current wind gust speed)